| time (UTC) | temp F | wind direction | speed MPH | gust MPH | rain 1hr in | rain 24hr in | rain mn in | humidity % | barometer mb |
| 20260902111803 | 67 | 78 | 11.0 | 20.0 | 0.00 | 0.00 | 0.00 | 46 | 1016.5 |
| 20260902110903 | 67 | 83 | 10.0 | 16.0 | 0.00 | 0.00 | 0.00 | 47 | 1016.6 |
| 20260902110024 | 67 | 86 | 11.0 | 16.0 | 0.00 | 0.00 | 0.00 | 47 | 1016.6 |
| 20260902105403 | 67 | 88 | 10.0 | 16.0 | 0.00 | 0.00 | 0.00 | 46 | 1016.5 |
| 20260902104503 | 67 | 87 | 10.0 | 16.0 | 0.00 | 0.00 | 0.00 | 44 | 1016.4 |
| 20260902103603 | 67 | 88 | 10.0 | 18.0 | 0.00 | 0.00 | 0.00 | 45 | 1016.4 |
| 20260902102703 | 67 | 94 | 8.0 | 16.0 | 0.00 | 0.00 | 0.00 | 44 | 1016.4 |
| 20260902101803 | 67 | 89 | 10.0 | 16.0 | 0.00 | 0.00 | 0.00 | 43 | 1016.5 |
| 20260902100903 | 67 | 90 | 9.0 | 19.0 | 0.00 | 0.00 | 0.00 | 43 | 1016.4 |
| 20260902100003 | 67 | 85 | 10.0 | 18.0 | 0.00 | 0.00 | 0.00 | 43 | 1016.5 |
| 20260902095403 | 67 | 84 | 10.0 | 18.0 | 0.00 | 0.00 | 0.00 | 43 | 1016.4 |
| 20260902094503 | 67 | 81 | 9.0 | 18.0 | 0.00 | 0.00 | 0.00 | 45 | 1016.6 |
| 20260902093603 | 67 | 80 | 9.0 | 15.0 | 0.00 | 0.00 | 0.00 | 47 | 1016.5 |
| 20260902092703 | 67 | 78 | 9.0 | 15.0 | 0.00 | 0.00 | 0.00 | 47 | 1016.6 |
| 20260902091803 | 68 | 72 | 10.0 | 16.0 | 0.00 | 0.00 | 0.00 | 45 | 1016.7 |
| 20260902090903 | 68 | 73 | 9.0 | 16.0 | 0.00 | 0.00 | 0.00 | 44 | 1016.6 |
| 20260902090003 | 68 | 73 | 10.0 | 16.0 | 0.00 | 0.00 | 0.00 | 44 | 1016.8 |
| 20260902085403 | 68 | 77 | 10.0 | 16.0 | 0.00 | 0.00 | 0.00 | 43 | 1016.7 |
| 20260902084503 | 68 | 84 | 8.0 | 14.0 | 0.00 | 0.00 | 0.00 | 43 | 1016.9 |
| 20260902083603 | 68 | 82 | 9.0 | 14.0 | 0.00 | 0.00 | 0.00 | 44 | 1016.9 |
| 20260902082703 | 68 | 81 | 9.0 | 18.0 | 0.00 | 0.00 | 0.00 | 43 | 1016.9 |
| 20260902081803 | 68 | 79 | 10.0 | 15.0 | 0.00 | 0.00 | 0.00 | 44 | 1016.9 |
| 20260902080924 | 68 | 86 | 8.0 | 12.0 | 0.00 | 0.00 | 0.00 | 45 | 1017.1 |
| 20260902080003 | 69 | 84 | 8.0 | 14.0 | 0.00 | 0.00 | 0.00 | 43 | 1017.1 |
| 20260902075403 | 69 | 92 | 7.0 | 16.0 | 0.00 | 0.00 | 0.00 | 43 | 1017.1 |
| 20260902074503 | 69 | 89 | 10.0 | 14.0 | 0.00 | 0.00 | 0.00 | 44 | 1016.9 |
| 20260902073603 | 69 | 89 | 10.0 | 19.0 | 0.00 | 0.00 | 0.00 | 44 | 1016.9 |
| 20260902072703 | 69 | 87 | 10.0 | 14.0 | 0.00 | 0.00 | 0.00 | 43 | 1016.9 |
| 20260902071803 | 70 | 87 | 10.0 | 18.0 | 0.00 | 0.00 | 0.00 | 44 | 1016.9 |
| 20260902070903 | 70 | 84 | 9.0 | 19.0 | 0.00 | 0.00 | 0.00 | 47 | 1016.9 |
| 20260902070003 | 70 | 89 | 10.0 | 19.0 | 0.00 | 0.00 | 0.00 | 49 | 1016.9 |
| 20260902065403 | 70 | 90 | 10.0 | 15.0 | 0.00 | 0.00 | 0.00 | 51 | 1016.8 |
| 20260902064503 | 70 | 85 | 9.0 | 15.0 | 0.00 | 0.00 | 0.00 | 52 | 1016.7 |
| 20260902063603 | 71 | 88 | 8.0 | 14.0 | 0.00 | 0.00 | 0.00 | 51 | 1016.7 |
| 20260902062703 | 71 | 93 | 7.0 | 13.0 | 0.00 | 0.00 | 0.00 | 51 | 1016.7 |
| 20260902061803 | 71 | 94 | 6.0 | 13.0 | 0.00 | 0.00 | 0.00 | 51 | 1016.6 |
| 20260902060903 | 72 | 92 | 6.0 | 11.0 | 0.00 | 0.00 | 0.00 | 51 | 1016.7 |
| 20260902060003 | 72 | 96 | 6.0 | 11.0 | 0.00 | 0.00 | 0.00 | 50 | 1016.6 |
| 20260902055403 | 73 | 106 | 6.0 | 12.0 | 0.00 | 0.00 | 0.00 | 49 | 1016.6 |
| 20260902054503 | 73 | 121 | 7.0 | 12.0 | 0.00 | 0.00 | 0.00 | 48 | 1016.7 |
| 20260902053603 | 73 | 110 | 7.0 | 14.0 | 0.00 | 0.00 | 0.00 | 48 | 1016.6 |
| 20260902052703 | 73 | 109 | 7.0 | 15.0 | 0.00 | 0.00 | 0.00 | 48 | 1016.6 |
| 20260902051803 | 73 | 104 | 7.0 | 15.0 | 0.00 | 0.00 | 0.00 | 48 | 1016.6 |
| 20260902050903 | 72 | 106 | 6.0 | 11.0 | 0.00 | 0.00 | 0.00 | 50 | 1016.7 |
| 20260902050024 | 72 | 96 | 7.0 | 13.0 | 0.00 | 0.00 | 0.00 | 51 | 1016.7 |
| 20260902045403 | 72 | 96 | 6.0 | 11.0 | 0.00 | 0.00 | 0.00 | 51 | 1016.6 |
| 20260902044524 | 72 | 92 | 5.0 | 10.0 | 0.00 | 0.00 | 0.00 | 50 | 1016.7 |
| 20260902043624 | 73 | 92 | 6.0 | 10.0 | 0.00 | 0.00 | 0.00 | 49 | 1016.6 |
| 20260902042703 | 73 | 101 | 5.0 | 11.0 | 0.00 | 0.00 | 0.00 | 49 | 1016.6 |
| 20260902041803 | 73 | 98 | 6.0 | 11.0 | 0.00 | 0.00 | 0.00 | 50 | 1016.6 |
| 20260902040903 | 73 | 95 | 8.0 | 13.0 | 0.00 | 0.00 | 0.00 | 50 | 1016.6 |
| 20260902040003 | 73 | 96 | 9.0 | 16.0 | 0.00 | 0.00 | 0.00 | 50 | 1016.6 |
| 20260902035403 | 73 | 100 | 7.0 | 16.0 | 0.00 | 0.00 | 0.00 | 50 | 1016.5 |
| 20260902034503 | 73 | 97 | 6.0 | 12.0 | 0.00 | 0.00 | 0.00 | 50 | 1016.4 |
| 20260902033603 | 73 | 96 | 6.0 | 12.0 | 0.00 | 0.00 | 0.00 | 51 | 1016.4 |
| 20260902032703 | 73 | 99 | 6.0 | 9.0 | 0.00 | 0.00 | 0.00 | 51 | 1016.4 |
| 20260902031803 | 73 | 97 | 5.0 | 9.0 | 0.00 | 0.00 | 0.00 | 50 | 1016.3 |
| 20260902030924 | 72 | 92 | 7.0 | 11.0 | 0.00 | 0.00 | 0.00 | 50 | 1016.2 |
| 20260902030003 | 72 | 82 | 7.0 | 11.0 | 0.00 | 0.00 | 0.00 | 51 | 1016.0 |
| 20260902025403 | 73 | 78 | 7.0 | 11.0 | 0.00 | 0.00 | 0.00 | 51 | 1015.9 |
| 20260902024503 | 73 | 75 | 8.0 | 11.0 | 0.00 | 0.00 | 0.00 | 51 | 1015.8 |
| 20260902023603 | 74 | 76 | 8.0 | 11.0 | 0.00 | 0.00 | 0.00 | 50 | 1015.7 |
| 20260902022724 | 74 | 74 | 8.0 | 12.0 | 0.00 | 0.00 | 0.00 | 50 | 1015.7 |
| 20260902021824 | 74 | 75 | 8.0 | 13.0 | 0.00 | 0.00 | 0.00 | 50 | 1015.6 |
| 20260902020903 | 74 | 81 | 7.0 | 11.0 | 0.00 | 0.00 | 0.00 | 51 | 1015.5 |
| 20260902020024 | 74 | 86 | 7.0 | 12.0 | 0.00 | 0.00 | 0.00 | 51 | 1015.6 |
| 20260902015403 | 75 | 90 | 8.0 | 12.0 | 0.00 | 0.00 | 0.00 | 51 | 1015.6 |
| 20260902014503 | 75 | 89 | 6.0 | 10.0 | 0.00 | 0.00 | 0.00 | 51 | 1015.6 |
| 20260902013603 | 76 | 86 | 6.0 | 11.0 | 0.00 | 0.00 | 0.00 | 50 | 1015.5 |
| 20260902012703 | 76 | 85 | 7.0 | 11.0 | 0.00 | 0.00 | 0.00 | 49 | 1015.6 |
| 20260902011803 | 77 | 83 | 8.0 | 11.0 | 0.00 | 0.00 | 0.00 | 48 | 1015.7 |
| 20260902010903 | 77 | 88 | 8.0 | 13.0 | 0.00 | 0.00 | 0.00 | 47 | 1015.7 |
| 20260902010003 | 77 | 94 | 7.0 | 11.0 | 0.00 | 0.00 | 0.00 | 46 | 1015.9 |
| 20260902005424 | 77 | 97 | 7.0 | 13.0 | 0.00 | 0.00 | 0.00 | 45 | 1015.9 |
| 20260902004503 | 77 | 109 | 7.0 | 13.0 | 0.00 | 0.00 | 0.00 | 43 | 1016.1 |
| 20260902003603 | 77 | 103 | 8.0 | 15.0 | 0.00 | 0.01 | 0.00 | 44 | 1016.1 |
| 20260902002703 | 77 | 98 | 7.0 | 15.0 | 0.00 | 0.02 | 0.00 | 45 | 1016.2 |
| 20260902001803 | 77 | 95 | 8.0 | 14.0 | 0.00 | 0.03 | 0.00 | 44 | 1016.2 |
| 20260902000903 | 77 | 88 | 8.0 | 18.0 | 0.00 | 0.03 | 0.00 | 45 | 1016.1 |
| 20260902000024 | 78 | 87 | 10.0 | 18.0 | 0.00 | 0.04 | 0.00 | 44 | 1016.2 |
| 20260901235403 | 78 | 86 | 10.0 | 20.0 | 0.00 | 0.04 | 0.00 | 43 | 1016.2 |
| 20260901234503 | 78 | 88 | 11.0 | 21.0 | 0.00 | 0.04 | 0.00 | 44 | 1016.2 |
| 20260901233603 | 78 | 89 | 10.0 | 18.0 | 0.00 | 0.05 | 0.00 | 43 | 1016.2 |
| 20260901232703 | 78 | 83 | 10.0 | 18.0 | 0.00 | 0.05 | 0.00 | 42 | 1016.3 |
| 20260901231803 | 79 | 88 | 10.0 | 21.0 | 0.00 | 0.05 | 0.00 | 42 | 1016.4 |
| 20260901230903 | 79 | 87 | 10.0 | 21.0 | 0.00 | 0.05 | 0.00 | 41 | 1016.5 |
| 20260901230024 | 79 | 84 | 10.0 | 21.0 | 0.00 | 0.05 | 0.00 | 42 | 1016.5 |
| 20260901225403 | 78 | 85 | 9.0 | 18.0 | 0.00 | 0.05 | 0.00 | 42 | 1016.6 |
| 20260901224503 | 79 | 88 | 11.0 | 18.0 | 0.00 | 0.05 | 0.00 | 41 | 1016.6 |
| 20260901223603 | 79 | 80 | 10.0 | 18.0 | 0.00 | 0.05 | 0.00 | 44 | 1016.8 |
| 20260901222703 | 79 | 86 | 10.0 | 19.0 | 0.00 | 0.05 | 0.00 | 43 | 1017.0 |
| 20260901221803 | 80 | 84 | 11.0 | 19.0 | 0.00 | 0.05 | 0.00 | 42 | 1017.2 |
| 20260901220924 | 81 | 82 | 9.0 | 19.0 | 0.00 | 0.05 | 0.00 | 42 | 1017.4 |
| 20260901220003 | 80 | 77 | 10.0 | 16.0 | 0.00 | 0.05 | 0.00 | 44 | 1017.5 |
| 20260901215403 | 79 | 80 | 9.0 | 16.0 | 0.00 | 0.05 | 0.00 | 45 | 1017.7 |
| 20260901214503 | 78 | 82 | 10.0 | 19.0 | 0.00 | 0.05 | 0.00 | 46 | 1017.8 |
| 20260901213603 | 78 | 78 | 12.0 | 19.0 | 0.00 | 0.05 | 0.00 | 44 | 1018.0 |
| 20260901212703 | 79 | 91 | 9.0 | 20.0 | 0.00 | 0.05 | 0.00 | 43 | 1018.2 |
| 20260901211803 | 78 | 88 | 11.0 | 25.0 | 0.00 | 0.05 | 0.00 | 43 | 1018.3 |
| 20260901210903 | 77 | 93 | 13.0 | 26.0 | 0.00 | 0.05 | 0.00 | 44 | 1018.5 |
| 20260901210024 | 78 | 91 | 9.0 | 21.0 | 0.00 | 0.05 | 0.00 | 44 | 1018.7 |
| 20260901205403 | 79 | 92 | 9.0 | 16.0 | 0.00 | 0.05 | 0.00 | 42 | 1018.5 |
| 20260901204524 | 79 | 90 | 9.0 | 15.0 | 0.00 | 0.05 | 0.00 | 43 | 1018.5 |
| 20260901203603 | 80 | 84 | 10.0 | 18.0 | 0.00 | 0.05 | 0.00 | 43 | 1018.5 |
| 20260901202703 | 78 | 82 | 10.0 | 16.0 | 0.00 | 0.05 | 0.00 | 45 | 1018.8 |
| 20260901201803 | 79 | 83 | 8.0 | 15.0 | 0.00 | 0.05 | 0.00 | 45 | 1019.0 |
| 20260901200903 | 79 | 95 | 8.0 | 16.0 | 0.00 | 0.05 | 0.00 | 45 | 1019.3 |
| 20260901200003 | 78 | 92 | 9.0 | 16.0 | 0.00 | 0.05 | 0.00 | 45 | 1019.5 |
| 20260901195424 | 78 | 88 | 9.0 | 15.0 | 0.00 | 0.05 | 0.00 | 46 | 1019.5 |
| 20260901194503 | 76 | 94 | 9.0 | 19.0 | 0.00 | 0.05 | 0.00 | 46 | 1019.7 |
| 20260901193624 | 77 | 91 | 9.0 | 21.0 | 0.00 | 0.05 | 0.00 | 45 | 1019.9 |
| 20260901192703 | 77 | 95 | 9.0 | 16.0 | 0.00 | 0.05 | 0.00 | 46 | 1019.8 |
| 20260901191803 | 78 | 90 | 8.0 | 16.0 | 0.00 | 0.05 | 0.00 | 45 | 1020.1 |
| 20260901190924 | 78 | 84 | 10.0 | 18.0 | 0.00 | 0.05 | 0.00 | 46 | 1020.1 |
| 20260901190003 | 77 | 88 | 7.0 | 14.0 | 0.00 | 0.05 | 0.00 | 45 | 1020.2 |
| 20260901185403 | 76 | 90 | 6.0 | 11.0 | 0.00 | 0.05 | 0.00 | 46 | 1020.2 |
| 20260901184503 | 74 | 79 | 5.0 | 9.0 | 0.00 | 0.05 | 0.00 | 47 | 1020.4 |
| 20260901183603 | 73 | 88 | 6.0 | 9.0 | 0.00 | 0.05 | 0.00 | 47 | 1020.7 |
| 20260901182703 | 72 | 86 | 5.0 | 9.0 | 0.00 | 0.05 | 0.00 | 47 | 1020.8 |
| 20260901181803 | 72 | 99 | 4.0 | 8.0 | 0.00 | 0.05 | 0.00 | 47 | 1021.0 |
| 20260901180903 | 71 | 96 | 5.0 | 9.0 | 0.00 | 0.05 | 0.00 | 47 | 1021.2 |
| 20260901180003 | 71 | 126 | 5.0 | 8.0 | 0.00 | 0.05 | 0.00 | 46 | 1021.3 |
| 20260901175403 | 71 | 132 | 5.0 | 9.0 | 0.00 | 0.05 | 0.00 | 46 | 1021.4 |
| 20260901174501 | 71 | 127 | 3.0 | 9.0 | 0.00 | 0.05 | 0.00 | 46 | 1021.4 |
| 20260901173622 | 71 | 102 | 4.0 | 9.0 | 0.00 | 0.05 | 0.00 | 45 | 1021.4 |
| 20260901172722 | 71 | 125 | 6.0 | 10.0 | 0.00 | 0.05 | 0.00 | 45 | 1021.3 |
| 20260901171801 | 70 | 109 | 3.0 | 7.0 | 0.00 | 0.05 | 0.00 | 43 | 1021.4 |
| 20260901170901 | 69 | 90 | 5.0 | 10.0 | 0.00 | 0.05 | 0.00 | 43 | 1021.5 |
| 20260901170001 | 69 | 90 | 6.0 | 10.0 | 0.00 | 0.05 | 0.00 | 41 | 1021.4 |
| 20260901165401 | 68 | 103 | 5.0 | 9.0 | 0.00 | 0.05 | 0.00 | 40 | 1021.5 |
| 20260901164501 | 66 | 98 | 4.0 | 11.0 | 0.00 | 0.05 | 0.00 | 40 | 1021.5 |
| 20260901163601 | 66 | 93 | 6.0 | 11.0 | 0.00 | 0.05 | 0.00 | 41 | 1021.4 |
| 20260901162701 | 66 | 88 | 6.0 | 11.0 | 0.00 | 0.05 | 0.00 | 41 | 1021.5 |
| 20260901161801 | 66 | 103 | 6.0 | 11.0 | 0.00 | 0.05 | 0.00 | 42 | 1021.4 |
| 20260901160901 | 66 | 102 | 7.0 | 11.0 | 0.00 | 0.05 | 0.00 | 41 | 1021.4 |
| 20260901160001 | 66 | 94 | 7.0 | 11.0 | 0.00 | 0.05 | 0.00 | 39 | 1021.4 |
| 20260901155422 | 66 | 86 | 6.0 | 11.0 | 0.00 | 0.05 | 0.00 | 37 | 1021.3 |
| 20260901154522 | 66 | 62 | 6.0 | 10.0 | 0.00 | 0.05 | 0.00 | 34 | 1021.4 |
| 20260901153601 | 65 | 76 | 5.0 | 10.0 | 0.00 | 0.05 | 0.00 | 32 | 1021.4 |
| 20260901152701 | 64 | 60 | 6.0 | 8.0 | 0.00 | 0.05 | 0.00 | 31 | 1021.4 |
| 20260901151801 | 63 | 64 | 4.0 | 8.0 | 0.00 | 0.05 | 0.00 | 30 | 1021.6 |
| 20260901150901 | 63 | 60 | 5.0 | 8.0 | 0.00 | 0.05 | 0.00 | 28 | 1021.5 |
| 20260901150022 | 63 | 71 | 5.0 | 8.0 | 0.00 | 0.05 | 0.00 | 26 | 1021.5 |
| 20260901145401 | 63 | 55 | 5.0 | 8.0 | 0.00 | 0.05 | 0.00 | 25 | 1021.5 |
| 20260901144501 | 61 | 94 | 2.0 | 5.0 | 0.00 | 0.05 | 0.00 | 24 | 1021.4 |
| 20260901143601 | 60 | 58 | 2.0 | 7.0 | 0.00 | 0.05 | 0.00 | 25 | 1021.3 |
| 20260901142701 | 59 | 57 | 5.0 | 7.0 | 0.00 | 0.05 | 0.00 | 25 | 1021.3 |
| 20260901141822 | 59 | 60 | 5.0 | 7.0 | 0.00 | 0.05 | 0.00 | 25 | 1021.3 |
| 20260901140901 | 59 | 76 | 4.0 | 8.0 | 0.00 | 0.05 | 0.00 | 25 | 1021.3 |
| 20260901140022 | 59 | 75 | 5.0 | 8.0 | 0.00 | 0.05 | 0.00 | 25 | 1021.1 |
| 20260901135422 | 58 | 77 | 5.0 | 8.0 | 0.00 | 0.05 | 0.00 | 25 | 1021.1 |
| 20260901134522 | 58 | 69 | 4.0 | 9.0 | 0.00 | 0.05 | 0.00 | 25 | 1021.0 |
| 20260901133601 | 58 | 85 | 4.0 | 9.0 | 0.00 | 0.05 | 0.00 | 25 | 1020.9 |
| 20260901132701 | 58 | 117 | 3.0 | 5.0 | 0.00 | 0.05 | 0.00 | 25 | 1020.8 |
| 20260901131801 | 58 | 131 | 2.0 | 5.0 | 0.00 | 0.05 | 0.00 | 25 | 1020.8 |
| 20260901130922 | 58 | 131 | 2.0 | 5.0 | 0.00 | 0.05 | 0.00 | 25 | 1020.8 |
| 20260901130001 | 58 | 92 | 2.0 | 6.0 | 0.00 | 0.05 | 0.00 | 25 | 1020.7 |
| 20260901125401 | 58 | 79 | 2.0 | 6.0 | 0.00 | 0.05 | 0.00 | 25 | 1020.7 |
| 20260901124522 | 58 | 79 | 4.0 | 7.0 | 0.00 | 0.05 | 0.00 | 25 | 1020.7 |
| 20260901123601 | 58 | 68 | 5.0 | 8.0 | 0.00 | 0.05 | 0.00 | 25 | 1020.7 |
| 20260901122701 | 58 | 73 | 3.0 | 6.0 | 0.00 | 0.05 | 0.00 | 25 | 1020.7 |
| 20260901121802 | 57 | 85 | 3.0 | 8.0 | 0.00 | 0.05 | 0.00 | 26 | 1020.7 |
| 20260901120902 | 57 | 86 | 4.0 | 8.0 | 0.00 | 0.05 | 0.00 | 25 | 1020.7 |
| 20260901120023 | 57 | 83 | 5.0 | 8.0 | 0.00 | 0.05 | 0.00 | 26 | 1020.7 |
| 20260901115402 | 56 | 74 | 5.0 | 8.0 | 0.00 | 0.05 | 0.00 | 26 | 1020.7 |
| 20260901114502 | 56 | 89 | 3.0 | 6.0 | 0.00 | 0.05 | 0.00 | 26 | 1020.7 |
| 20260901113602 | 57 | 96 | 3.0 | 4.0 | 0.00 | 0.05 | 0.00 | 26 | 1020.6 |
| 20260901112723 | 57 | 96 | 4.0 | 5.0 | 0.00 | 0.05 | 0.00 | 26 | 1020.4 |